SCP
1 1 1 1 1 1 1 1 1 1 1 0 0 0 0 0 0 0 0 0 0 -0
1 1 1 1 1 1 1 1 1 1 0 0 0 0 0 0 0 0 0 0 0 -0
0 0 0 0 1 1 1 0 0 0 0 0 0 0 0 0 0 0 0 0 0 0
0 0 0 1 1 1 0 0 0 0 0 0 0 0 0 0 0 0 0 0 0 0
0 0 0 0 0 0 0 0 0 0 0 0 0 0 0 0 0 0 0 0 0 0
0 0 0 0 0 0 0 0 0 0 0 0 0 0 0 0 0 0 0 0 0 0
0 0 0 0 0 0 0 0 0 0 0 0 0 0 0 0 0 0 0 0 0 0
0 0 0 0 0 0 0 0 0 0 0 0 0 0 0 0 0 0 0 0 0 0
0 0 0 0 0 0 0 0 0 0 0 0 0 0 0 0 0 0 0 0 0 0
0 0 0 0 0 0 0 0 0 0 0 0 0 0 0 0 0 0 0 0 -0 0
0 0 0 0 -0 0 0 0 0 0 0 0 0 0 0 -0 0 0 -0 -0 -0 0
0 0 -0 -0 -0 0 0 0 0 0 0 0 0 0 0 0 0 -0 -0 -0 -0 0
0 0 -0 0 0 0 0 0 0 0 0 0 0 0 0 0 -0 -0 -0 0 0 0
0 -0 -0 -0 0 0 0 0 0 0 0 0 0 0 0 0 -0 0 0 0 0 0
Wind_Speed_500mb
37 32 32 32 32 28 27 26 29 26 23 19 18 16 16 14 15 19 18 21 22 20
37 35 34 34 36 31 28 26 25 22 20 17 16 16 15 15 17 19 20 22 23 22
38 35 38 38 31 28 27 24 22 20 18 18 17 16 15 14 15 17 15 14 18 18
40 40 37 31 27 26 23 20 19 19 20 19 17 18 16 16 15 15 15 16 16 18
41 37 32 29 25 21 20 19 21 21 21 20 20 19 15 13 13 13 12 14 16 14
37 32 29 26 23 21 22 23 22 21 22 22 20 18 15 13 14 13 13 10 10 12
32 29 28 26 24 25 25 22 21 21 21 20 18 15 14 15 15 14 13 6 17 18
31 29 27 25 27 27 25 24 23 23 20 19 18 15 15 14 14 18 14 5 12 24
30 27 24 25 28 28 27 27 25 23 19 17 15 14 12 11 13 16 14 6 7 13
29 24 23 24 27 28 29 27 25 23 20 15 10 8 10 12 13 14 12 9 8 11
27 24 23 24 28 29 28 25 23 22 17 14 8 7 9 12 13 11 9 8 3 13
27 25 24 24 26 27 27 23 21 18 16 12 7 9 12 14 11 7 7 9 11 9
26 27 25 23 24 24 24 22 20 17 14 10 9 11 13 12 9 6 8 8 11 12
27 28 26 25 23 23 21 21 19 16 12 13 13 16 14 12 8 9 9 11 8 12
Wind_Direction_500mb
164 156 156 155 161 161 163 170 190 189 197 202 216 223 226 220 210 220 215 217 218 221
151 148 157 156 152 157 161 177 178 186 198 204 209 210 205 206 214 216 219 223 228 228
151 152 156 156 152 155 167 167 186 198 192 191 190 190 187 212 213 211 222 219 228 218
146 148 153 155 158 168 182 190 183 180 177 178 177 179 174 193 197 195 202 206 211 219
144 147 149 151 160 181 173 171 170 167 169 168 173 181 184 192 207 197 204 208 217 224
144 148 151 155 160 163 165 162 161 165 171 169 180 189 194 208 199 188 193 174 201 206
147 151 151 153 156 160 159 161 163 170 169 178 191 202 205 203 190 180 194 298 239 225
148 150 150 151 156 160 160 159 164 164 170 173 181 191 189 193 191 184 189 241 294 233
152 153 155 157 160 160 158 161 166 169 172 165 171 175 189 189 183 188 205 242 303 227
152 157 159 161 166 168 175 170 171 174 171 164 187 210 214 197 179 182 201 226 287 212
152 158 161 164 171 178 176 176 181 179 178 170 194 199 184 181 189 191 199 204 221 200
157 161 162 167 173 181 176 183 172 172 167 160 189 161 162 157 160 158 158 179 183 179
162 162 162 167 169 170 171 175 173 171 166 169 168 157 153 161 159 166 159 172 191 197
165 164 167 162 161 163 164 168 169 168 172 149 168 159 167 166 158 153 148 165 178 182
Wind_Speed_850mb
37 32 32 32 32 28 27 26 29 26 23 19 18 16 16 14 15 19 18 21 22 20
37 35 34 34 36 31 28 26 25 22 20 17 16 16 15 15 17 19 20 22 23 22
38 35 38 38 31 28 27 24 22 20 18 18 17 16 15 14 15 17 15 14 18 18
40 40 37 31 27 26 23 20 19 19 20 19 17 18 16 16 15 15 15 16 16 18
41 37 32 29 25 21 20 19 21 21 21 20 20 19 15 13 13 13 12 14 16 14
37 32 29 26 23 21 22 23 22 21 22 22 20 18 15 13 14 13 13 10 10 12
32 29 28 26 24 25 25 22 21 21 21 20 18 15 14 15 15 14 13 6 17 18
31 29 27 25 27 27 25 24 23 23 20 19 18 15 15 14 14 18 14 5 12 24
30 27 24 25 28 28 27 27 25 23 19 17 15 14 12 11 13 16 14 6 7 13
29 24 23 24 27 28 29 27 25 23 20 15 10 8 10 12 13 14 12 9 8 11
27 24 23 24 28 29 28 25 23 22 17 14 8 7 9 12 13 11 9 8 3 13
27 25 24 24 26 27 27 23 21 18 16 12 7 9 12 14 11 7 7 9 11 9
26 27 25 23 24 24 24 22 20 17 14 10 9 11 13 12 9 6 8 8 11 12
27 28 26 25 23 23 21 21 19 16 12 13 13 16 14 12 8 9 9 11 8 12
Wind_Direction_850mb
164 156 156 155 161 161 163 170 190 189 197 202 216 223 226 220 210 220 215 217 218 221
151 148 157 156 152 157 161 177 178 186 198 204 209 210 205 206 214 216 219 223 228 228
151 152 156 156 152 155 167 167 186 198 192 191 190 190 187 212 213 211 222 219 228 218
146 148 153 155 158 168 182 190 183 180 177 178 177 179 174 193 197 195 202 206 211 219
144 147 149 151 160 181 173 171 170 167 169 168 173 181 184 192 207 197 204 208 217 224
144 148 151 155 160 163 165 162 161 165 171 169 180 189 194 208 199 188 193 174 201 206
147 151 151 153 156 160 159 161 163 170 169 178 191 202 205 203 190 180 194 298 239 225
148 150 150 151 156 160 160 159 164 164 170 173 181 191 189 193 191 184 189 241 294 233
152 153 155 157 160 160 158 161 166 169 172 165 171 175 189 189 183 188 205 242 303 227
152 157 159 161 166 168 175 170 171 174 171 164 187 210 214 197 179 182 201 226 287 212
152 158 161 164 171 178 176 176 181 179 178 170 194 199 184 181 189 191 199 204 221 200
157 161 162 167 173 181 176 183 172 172 167 160 189 161 162 157 160 158 158 179 183 179
162 162 162 167 169 170 171 175 173 171 166 169 168 157 153 161 159 166 159 172 191 197
165 164 167 162 161 163 164 168 169 168 172 149 168 159 167 166 158 153 148 165 178 182